This demonstration page uses our WeatherBlox Daily Observations layout. Learn more.

Left ArrowRight Arrow

40.92945, -100.16068

Hourly Observations for April 18, 2021

Temp ( °F °C ) Dew Point ( °F °C ) Humidity (%) Winds ( mph kmh ) Pressure ( in mb ) Visibility ( mi km ) Precip ( " mm )
12:15 am 00:15 Partly Cloudy 34 1.3 33 0.5 94 94 WNW 7 11 30.23 1024 10 16.0934 0 0
12:35 am 00:35 Clear 33 0.5 32 0 96 96 WNW 8 13 30.24 1024 10 16.0934 0 0
12:55 am 00:55 Clear 33 0.5 32 0 96 96 WNW 7 11 30.24 1024 10 16.0934 0 0
1:15 am 01:15 Clear 33 0.5 32 0 96 96 WNW 7 11 30.24 1024 10 16.0934 0 0
1:35 am 01:35 Clear 32 0 31 -0.4 97 97 WNW 8 13 30.25 1024 10 16.0934 0 0
1:55 am 01:55 Clear 31 -0.5 30 -1 96 96 WNW 5 7 30.25 1024 10 16.0934 0 0
2:15 am 02:15 Clear 31 -0.5 30 -1.1 96 96 Calm 30.24 1024 10 16.0934 0 0
2:35 am 02:35 Clear 31 -0.5 30 -1.1 96 96 NW 7 11 30.24 1024 10 16.0934 0 0
2:55 am 02:55 Clear 31 -0.8 29 -1.4 96 96 WNW 7 11 30.24 1024 10 16.0934 0 0
3:15 am 03:15 Clear 31 -0.7 29 -1.5 94 94 NW 6 9 30.23 1024 10 16.0934 0 0
3:35 am 03:35 Clear 30 -0.9 29 -1.5 96 96 WNW 8 13 30.23 1024 10 16.0934 0 0
3:55 am 03:55 Clear 31 -0.6 30 -1.3 95 95 NW 7 11 30.22 1023 10 16.0934 0 0
4:15 am 04:15 Clear 31 -0.5 30 -1.2 95 95 NW 7 11 30.22 1023 10 16.0934 0 0
4:35 am 04:35 Clear 31 -0.6 30 -1.3 95 95 NW 7 11 30.22 1023 10 16.0934 0 0
4:55 am 04:55 Clear 30 -1 29 -1.6 96 96 WNW 5 7 30.22 1023 10 16.0934 0 0
5:15 am 05:15 Clear 30 -1.2 29 -1.8 96 96 WNW 6 9 30.22 1023 10 16.0934 0 0
5:35 am 05:35 Clear 30 -1.1 29 -1.8 95 95 WNW 7 11 30.22 1023 10 16.0934 0 0
5:55 am 05:55 Clear 30 -1.1 28 -2 94 94 WNW 7 11 30.22 1023 10 16.0934 0 0
6:15 am 06:15 Clear 30 -1 29 -1.8 94 94 WNW 7 11 30.21 1023 10 16.0934 0 0
6:35 am 06:35 Clear 30 -1.3 28 -2.1 94 94 WNW 6 9 30.21 1023 10 16.0934 0 0
6:55 am 06:55 Sunny 29 -1.5 28 -2.4 94 94 WNW 6 9 30.21 1023 10 16.0934 0 0
7:15 am 07:15 Sunny 29 -1.6 28 -2.4 94 94 WNW 6 9 30.21 1023 10 16.0934 0 0
7:35 am 07:35 Sunny 30 -1.2 28 -2.1 94 94 WNW 6 9 30.21 1023 10 16.0934 0 0
7:55 am 07:55 Sunny 31 -0.5 29 -1.5 93 93 WNW 6 9 30.2 1023 10 16.0934 0 0
8:15 am 08:15 Sunny 32 0 30 -1.2 92 92 WNW 6 9 30.2 1023 10 16.0934 0 0
8:35 am 08:35 Sunny 33 0.3 31 -0.7 93 93 WNW 6 9 30.19 1022 10 16.0934 0 0
8:55 am 08:55 Sunny 34 1.1 32 -0.2 91 91 WNW 6 9 30.19 1022 10 16.0934 0 0
9:15 am 09:15 Sunny 36 2.3 32 0 85 85 WNW 7 11 30.17 1022 10 16.0934 0 0
9:35 am 09:35 Sunny 38 3.4 32 0.1 79 79 WNW 7 11 30.15 1021 10 16.0934 0 0
9:55 am 09:55 Sunny 40 4.6 33 0.7 76 76 WNW 7 11 30.13 1020 10 16.0934 0 0
10:15 am 10:15 Sunny 43 5.9 36 2.1 77 77 WNW 6 9 30.11 1020 10 16.0934 0 0
10:35 am 10:35 Sunny 45 7.1 37 2.5 73 73 WNW 6 9 30.1 1019 10 16.0934 0 0
10:55 am 10:55 Sunny 47 8.6 36 2.3 65 65 W 5 7 30.08 1019 10 16.0934 0 0
11:15 am 11:15 Sunny 50 9.9 35 1.4 56 56 WNW 7 11 30.06 1018 10 16.0934 0 0
11:35 am 11:35 Sunny 52 10.9 34 1.1 51 51 WNW 8 13 30.05 1018 10 16.0934 0 0
11:55 am 11:55 Sunny 53 11.4 35 1.6 51 51 W 7 11 30.04 1017 10 16.0934 0 0
12:15 pm 12:15 Sunny 53 11.7 35 1.6 50 50 NW 6 9 30.04 1017 10 16.0934 0 0
12:35 pm 12:35 Sunny 55 12.6 33 0.3 43 43 NNW 8 13 30.02 1017 10 16.0934 0 0
12:55 pm 12:55 Sunny 56 13.1 33 0.3 42 42 WNW 9 15 30 1016 10 16.0934 0 0
1:15 pm 13:15 Sunny 56 13.6 30 -1 37 37 WNW 10 17 29.99 1016 10 16.0934 0 0
1:35 pm 13:35 Sunny 57 14 32 0 39 39 W 13 20 29.97 1015 10 16.0934 0 0
1:58 pm 13:58 Sunny 57 14 32 0 39 39 NNW 8 13 29.96 1015 10 16.0934 0 0
2:15 pm 14:15 Sunny 59 14.9 33 0.7 38 38 NW 10 17 29.96 1014 10 16.0934 0 0
2:38 pm 14:38 Sunny 59 15 34 1 39 39 W 9 15 29.95 1014 10 16.0934 0 0
2:55 pm 14:55 Partly Cloudy 60 15.7 32 0.1 35 35 W 10 17 29.94 1014 10 16.0934 0 0
3:15 pm 15:15 Sunny 61 16 34 1.1 37 37 NW 8 13 29.93 1013 10 16.0934 0 0
3:35 pm 15:35 Partly Cloudy 62 16.6 32 0.2 33 33 WNW 3 6 29.91 1013 10 16.0934 0 0
3:55 pm 15:55 Partly Cloudy 63 17.2 33 0.3 32 32 NW 12 19 29.91 1013 10 16.0934 0 0
4:15 pm 16:15 Partly Cloudy 63 17.4 32 -0.2 31 31 NNW 9 15 29.89 1012 10 16.0934 0 0
4:35 pm 16:35 Partly Cloudy 63 17.2 29 -1.4 28 28 WNW 9 15 29.89 1012 10 16.0934 0 0
4:55 pm 16:55 Partly Cloudy 64 17.7 30 -1 28 28 NW 10 17 29.88 1012 10 16.0934 0 0
5:15 pm 17:15 Partly Cloudy 64 17.7 33 0.4 31 31 N 9 15 29.88 1012 10 16.0934 0 0
5:35 pm 17:35 Partly Cloudy 64 18 32 -0.1 30 30 N 12 19 29.87 1011 10 16.0934 0 0
5:55 pm 17:55 Sunny 64 17.8 29 -1.4 27 27 NNW 10 17 29.87 1012 10 16.0934 0 0
6:15 pm 18:15 Sunny 64 17.8 32 0.1 30 30 NNW 12 19 29.86 1011 10 16.0934 0 0
6:35 pm 18:35 Sunny 64 17.7 32 0.1 31 31 NW 9 15 29.86 1011 10 16.0934 0 0
6:55 pm 18:55 Sunny 63 17.1 35 1.4 35 35 NNW 8 13 29.87 1011 10 16.0934 0 0
7:15 pm 19:15 Sunny 63 17 35 1.9 36 36 NW 3 6 29.87 1011 10 16.0934 0 0
7:35 pm 19:35 Sunny 62 16.7 35 1.7 37 37 NNW 3 6 29.86 1011 10 16.0934 0 0
7:55 pm 19:55 Sunny 60 15.3 38 3.6 46 46 WNW 3 6 29.87 1012 10 16.0934 0 0
8:15 pm 20:15 Sunny 59 15 35 1.4 40 40 Calm 29.88 1012 10 16.0934 0 0
8:35 pm 20:35 Clear 57 14.1 35 1.7 43 43 WSW 3 6 29.88 1012 10 16.0934 0 0
8:55 pm 20:55 Clear 52 11.2 38 3.1 58 58 SSW 6 9 29.91 1013 10 16.0934 0 0
9:15 pm 21:15 Clear 50 10.1 36 2.4 59 59 SW 6 9 29.92 1013 10 16.0934 0 0
9:35 pm 21:35 Clear 47 8.3 37 2.6 68 68 SW 6 9 29.95 1014 10 16.0934 0 0
9:55 pm 21:55 Clear 46 8 36 2.4 68 68 SSW 6 9 29.95 1014 10 16.0934 0 0
10:15 pm 22:15 Clear 46 8 36 2 66 66 SSW 3 6 29.95 1014 10 16.0934 0 0
10:35 pm 22:35 Partly Cloudy 46 7.5 36 2.2 69 69 SW 5 7 29.95 1014 10 16.0934 0 0
10:55 pm 22:55 Cloudy 45 7.4 37 2.6 72 72 Calm 29.96 1014 10 16.0934 0 0
11:15 pm 23:15 Mostly Cloudy 46 8 36 2.2 67 67 Calm 29.95 1014 10 16.0934 0 0
11:35 pm 23:35 Cloudy 50 10.1 35 1.7 56 56 N 12 19 29.96 1015 10 16.0934 0 0
11:55 pm 23:55 Cloudy 50 10.1 37 2.6 60 60 NE 15 24 29.96 1015 10 16.0934 0 0

Powered by AerisWeather